Date,TemperatureHighF,TemperatureAvgF,TemperatureLowF,DewpointHighF,DewpointAvgF,DewpointLowF,HumidityHigh,HumidityAvg,HumidityLow,PressureMaxIn,PressureMinIn,WindSpeedMaxMPH,WindSpeedAvgMPH,GustSpeedMaxMPH,PrecipitationSumIn
2013-1-15,39,34,30,29,26,23,87,74,53,29.99,29.87,4,1,4,0.04
2013-1-16,33,32,29,30,27,23,90,85,69,29.91,29.51,4,0,4,0.18
2013-1-17,40,33,29,31,25,12,90,73,46,29.75,29.53,7,2,7,0.31
2013-1-18,29,21,14,12,-4,-15,56,34,20,30.13,29.71,11,4,11,0.00
2013-1-19,44,35,16,31,21,4,74,56,40,30.03,29.58,8,4,8,0.00
2013-1-20,51,39,27,31,22,-2,74,52,24,29.62,29.28,14,5,14,0.01
2013-1-21,27,24,17,16,10,-2,76,57,28,29.77,29.45,5,1,5,0.00
2013-1-22,22,16,10,15,-2,-32,77,47,18,29.76,29.42,98,2,98,0.00
2013-1-23,14,9,4,-2,-17,-26,54,30,21,29.81,29.73,98,4,98,0.00
2013-1-24,17,8,-2,-12,-19,-23,49,28,19,29.92,29.75,14,4,14,0.00
2013-1-25,23,14,5,5,-14,-33,62,27,10,29.99,29.70,99,2,99,0.00
2013-1-26,15,9,4,6,-2,-33,65,62,60,29.73,29.66,3,2,3,0.00
2013-1-27,28,17,3,0,-5,-11,62,41,18,30.14,29.73,11,3,11,0.00
2013-1-28,30,23,11,23,10,-5,80,59,24,30.13,29.67,8,1,8,0.00
2013-1-29,35,31,27,30,26,22,87,82,79,29.87,29.67,5,1,5,0.17
2013-1-30,57,49,33,54,47,30,95,93,87,29.82,29.15,21,5,21,0.13
2013-1-31,59,46,29,57,33,6,93,64,28,29.30,28.70,28,8,28,1.15
2013-2-1,31,26,19,11,2,-7,48,35,22,29.77,29.30,17,5,17,0.00
2013-2-2,30,23,15,10,0,-7,57,37,21,29.92,29.73,14,3,14,0.00
2013-2-3,30,23,17,15,13,9,75,63,50,29.73,29.42,8,1,8,0.00
2013-2-4,29,21,14,10,4,-7,72,50,22,29.63,29.42,12,3,12,0.00
2013-2-5,25,22,18,17,11,5,75,62,52,29.69,29.60,4,1,7,0.00
2013-2-6,36,28,20,24,13,-7,81,56,22,29.99,29.58,11,2,11,0.05
2013-2-7,31,22,10,6,0,-6,64,39,23,30.18,29.98,7,1,7,0.00
2013-2-8,32,27,17,28,20,2,91,76,43,30.13,29.21,25,6,25,0.00
2013-2-9,22,18,11,17,9,-5,84,68,41,29.89,29.23,21,7,21,0.00
2013-2-10,37,18,1,11,0,-11,65,48,20,30.08,29.89,9,2,9,0.04
2013-2-11,44,32,10,42,27,-1,95,83,61,30.02,29.32,8,2,8,0.31
2013-2-12,44,38,33,39,26,19,95,63,45,29.59,29.32,16,4,16,0.01
2013-2-13,44,34,28,24,20,16,73,57,40,29.56,29.36,9,2,9,0.00
2013-2-14,46,35,23,25,20,14,83,56,28,29.68,29.39,8,2,8,0.01
2013-2-15,51,37,26,34,29,18,86,73,51,29.69,29.59,12,2,12,0.00
2013-2-16,34,32,30,29,27,25,86,83,71,29.62,29.59,8,2,8,0.01
2013-2-17,28,20,14,17,-6,-12,78,33,20,29.43,29.13,20,8,20,0.02
2013-2-18,31,20,12,0,-9,-13,40,28,17,29.86,29.42,20,5,20,0.00
2013-2-19,47,33,15,41,22,-3,93,65,38,29.87,29.28,17,2,17,0.24
2013-2-20,37,30,24,34,13,0,89,51,27,29.50,29.25,15,5,15,0.01
2013-2-21,32,26,22,12,7,1,60,45,32,29.91,29.48,20,5,20,0.00
2013-2-22,43,30,16,21,16,6,73,57,40,30.04,29.91,13,2,13,0.00
2013-2-23,37,33,29,30,26,20,88,75,65,30.00,29.55,10,2,10,0.31
2013-2-24,35,34,32,32,30,29,91,89,86,29.57,29.37,10,3,10,0.41
2013-2-25,41,33,27,33,28,23,91,82,65,29.93,29.57,7,1,7,0.07
2013-2-26,42,35,31,33,28,23,88,74,53,30.01,29.78,10,1,10,0.00
2013-2-27,43,39,34,40,36,26,94,90,72,29.79,29.27,17,5,17,1.16
2013-2-28,46,36,29,40,32,26,94,87,72,29.33,29.22,4,0,4,0.01
2013-3-1,46,36,28,32,26,21,90,67,39,29.38,29.22,11,2,11,0.00
2013-3-2,39,35,32,25,23,21,68,61,52,29.38,29.31,8,2,8,0.00
2013-3-3,39,33,30,26,22,18,83,65,51,29.34,29.26,10,2,10,0.00
2013-3-4,39,31,26,22,17,14,72,56,43,29.45,29.30,14,5,14,0.00
2013-3-5,47,34,27,27,21,14,80,58,42,29.75,29.45,11,2,11,0.00
2013-3-6,40,35,30,33,30,24,89,81,64,29.73,29.67,23,6,23,0.17
2013-3-7,35,32,29,28,26,24,86,78,67,29.69,29.63,24,8,24,0.01
2013-3-8,36,31,29,30,26,20,88,82,52,29.82,29.59,20,4,20,0.00
2013-3-9,53,41,33,20,15,8,54,38,17,29.92,29.81,13,2,13,0.17
2013-3-10,53,35,19,30,24,14,83,65,38,30.06,29.98,5,2,5,0.00
2013-3-11,55,42,34,38,33,28,88,73,44,29.99,29.84,8,2,8,0.00
2013-3-12,54,48,38,50,45,36,94,89,74,29.83,29.42,7,3,7,0.51
2013-3-13,51,39,28,42,27,16,94,66,28,29.48,29.41,14,3,14,0.00
2013-3-14,34,27,22,23,8,-4,78,47,25,29.53,29.43,15,3,15,0.00
2013-3-15,42,31,22,25,11,-6,73,46,18,29.56,29.35,21,4,21,0.01
2013-3-16,38,31,26,21,11,0,61,45,22,29.53,29.39,14,3,14,0.00
2013-3-17,37,29,22,16,4,-6,65,38,17,29.97,29.55,12,3,12,0.00
2013-3-18,41,28,15,22,3,-11,76,37,17,30.12,29.86,8,2,8,0.00
2013-3-19,36,32,28,33,28,22,89,84,76,29.85,29.29,22,4,22,0.34
2013-3-20,42,31,23,27,17,8,89,58,30,29.50,29.38,14,2,14,0.02
2013-3-21,37,29,21,24,19,14,79,67,43,29.51,29.30,8,1,8,0.00
2013-3-22,42,31,20,20,14,8,76,48,32,29.46,29.31,17,4,17,0.00
2013-3-23,43,34,27,21,15,9,67,47,26,29.51,29.37,20,5,20,0.00
2013-3-24,50,36,26,22,18,15,69,49,27,29.54,29.40,12,2,12,0.00
2013-3-25,43,35,28,29,24,19,76,64,51,29.45,29.16,15,4,15,0.00
2013-3-26,44,36,26,26,23,17,69,59,39,29.49,29.21,10,3,10,0.00
2013-3-27,49,44,21,26,19,15,82,40,29,29.53,29.47,8,4,8,0.00
2013-3-28,49,41,34,34,28,18,82,62,29,29.73,29.49,10,2,10,0.00
2013-3-29,59,42,28,35,26,18,88,58,23,29.76,29.67,14,2,14,0.01
2013-3-30,60,44,30,31,20,8,76,44,16,29.79,29.69,12,2,12,0.00
2013-3-31,59,42,24,41,24,13,90,54,19,29.81,29.38,14,3,14,0.06
2013-4-1,61,45,32,43,36,12,93,71,39,29.50,29.21,19,4,19,0.26
2013-4-2,41,33,25,15,8,-4,59,36,18,29.66,29.50,17,4,17,0.00
2013-4-3,45,35,29,12,6,-2,47,31,17,29.88,29.64,21,6,21,0.00
2013-4-4,57,39,25,26,13,3,69,38,15,30.00,29.76,12,3,12,0.00
2013-4-5,61,45,35,31,23,8,73,48,15,29.76,29.34,14,3,14,0.00
2013-4-6,49,37,27,24,8,-4,58,32,16,30.01,29.58,15,4,15,0.00
2013-4-7,56,40,23,40,26,10,81,57,21,30.01,29.71,19,4,19,0.00
2013-4-8,69,53,43,44,38,28,92,62,24,29.77,29.65,10,2,10,0.00
2013-4-9,75,58,45,53,43,36,95,63,30,29.76,29.55,16,3,16,0.00
2013-4-10,69,55,45,52,48,42,99,77,50,29.69,29.53,8,2,8,0.35
2013-4-11,59,49,43,48,42,27,99,77,44,29.80,29.50,10,2,10,0.01
2013-4-12,42,39,37,37,34,29,97,85,61,29.82,29.44,17,5,17,0.41
2013-4-13,56,43,35,39,35,32,97,77,44,29.62,29.41,12,3,12,0.04
2013-4-14,52,41,29,41,29,22,97,66,31,29.91,29.61,14,2,14,0.00
2013-4-15,64,43,27,35,29,22,86,61,29,30.08,29.91,8,2,8,0.00
2013-4-16,66,50,32,49,41,30,97,75,44,30.08,29.79,17,4,17,0.00
2013-4-17,69,56,41,52,36,20,94,53,18,30.02,29.77,11,3,11,0.00
2013-4-18,66,49,32,47,34,24,98,62,25,30.08,29.83,13,3,13,0.00
2013-4-19,72,60,51,62,58,47,99,92,68,29.83,29.37,17,5,17,0.11
2013-4-20,62,52,42,61,42,25,99,71,38,29.92,29.32,16,4,16,0.90
2013-4-21,56,42,30,30,20,11,76,45,18,30.34,29.92,27,3,27,0.00
2013-4-22,58,42,28,34,28,17,93,62,23,30.39,30.23,14,3,14,0.00
2013-4-23,42,39,37,41,38,30,99,93,75,30.24,29.76,14,4,14,0.01
2013-4-24,77,54,40,49,43,34,99,74,22,29.75,29.53,16,4,16,0.00
2013-4-25,53,51,50,52,51,48,99,98,96,29.59,29.55,14,5,14,0.00
2013-4-26,66,49,30,39,32,26,91,59,28,30.09,29.95,7,2,7,0.00
2013-4-27,69,49,32,44,36,30,99,67,31,30.10,29.98,5,2,5,0.00
2013-4-28,72,52,32,44,30,23,99,53,17,30.03,29.92,11,2,11,0.00
2013-4-29,70,55,44,48,35,18,93,55,19,29.97,29.91,7,2,7,0.00
2013-4-30,75,55,39,39,25,11,84,38,10,30.04,29.93,9,1,9,0.00
2013-5-1,76,53,30,42,34,26,88,55,21,30.17,30.04,9,2,21,0.00
2013-5-2,83,57,37,48,39,33,99,60,18,30.15,30.00,13,2,13,0.00
2013-5-3,66,51,40,45,41,36,91,68,45,30.18,30.06,15,3,15,0.00
2013-5-4,69,50,33,46,33,13,99,61,15,30.06,29.96,13,2,13,0.00
2013-5-5,70,49,30,43,36,-9,99,67,29,30.00,29.90,9,2,9,0.00
2013-5-6,50,48,43,44,43,41,92,81,77,29.96,29.91,4,1,4,0.00
2013-5-7,50,50,50,43,43,43,77,77,77,29.95,29.95,2,2,2,0.00
2013-5-30,91,80,68,71,69,65,96,70,44,29.93,29.87,10,2,10,10.12
2013-5-31,94,80,61,74,67,61,99,68,42,29.96,29.83,9,2,9,0.00
2013-6-1,91,76,63,72,66,61,97,74,45,29.86,29.75,11,2,11,0.00
2013-6-2,87,74,65,71,66,64,97,80,51,29.77,29.63,15,3,15,0.00
2013-6-3,78,67,58,70,65,58,99,93,70,29.71,29.61,8,1,8,0.93
2013-6-4,73,58,45,58,48,43,99,73,38,29.94,29.69,12,2,12,0.01
2013-6-5,76,60,44,56,49,44,99,71,38,30.04,29.93,9,1,9,0.00
2013-6-6,73,60,47,60,53,46,99,79,49,30.03,29.93,9,1,9,0.01
2013-6-7,60,56,53,60,56,53,99,98,97,29.93,29.61,10,2,10,2.40
2013-6-8,80,63,52,67,59,52,99,88,59,29.87,29.45,13,2,13,0.92
2013-6-9,83,66,52,61,57,51,99,76,41,30.03,29.86,8,1,8,0.00
2013-6-10,70,61,51,66,59,51,99,94,72,30.04,29.81,5,1,5,0.46
2013-6-11,77,62,57,70,61,57,99,97,73,29.80,29.39,8,1,8,1.11
2013-6-12,60,58,56,60,58,56,99,99,99,29.46,29.43,7,3,7,0.00
2013-6-13,62,54,47,60,53,47,99,97,89,29.67,29.47,6,1,6,0.60
2013-6-14,70,59,51,60,56,50,99,89,66,29.65,29.44,8,2,8,0.94
2013-6-15,80,58,48,60,50,46,99,82,31,29.81,29.65,6,1,6,0.00
2013-6-16,76,66,48,64,57,48,99,75,54,29.81,29.59,11,2,11,0.00
2013-6-17,86,69,57,67,62,57,99,80,41,29.77,29.65,12,2,12,0.15
2013-6-18,83,64,56,69,61,56,99,90,53,29.78,29.69,6,1,6,0.40
2013-6-19,77,62,52,59,54,50,99,78,43,30.00,29.74,8,1,8,0.01
2013-6-20,81,64,46,59,53,46,99,72,32,30.11,30.00,8,1,8,0.00
2013-6-21,84,69,56,67,60,54,95,76,53,30.12,30.06,8,2,8,0.00
2013-6-22,85,70,58,65,59,55,90,71,46,30.10,29.99,9,2,9,0.00
2013-6-23,89,74,61,73,66,60,96,78,49,30.03,29.90,13,3,13,0.00
2013-6-24,94,78,67,75,71,66,98,80,48,29.91,29.76,11,2,11,0.21
2013-6-25,91,76,64,76,69,63,99,83,50,29.82,29.62,10,1,10,0.02
2013-6-26,89,74,67,74,70,67,99,88,54,29.70,29.59,9,1,9,0.08
2013-6-27,74,68,66,72,68,65,99,98,93,29.70,29.57,4,1,4,0.02
2013-6-28,88,72,65,75,69,65,99,91,50,30.44,29.54,11,3,11,8.63
2013-6-29,83,74,69,72,70,68,99,87,64,30.11,29.89,11,2,11,0.00
2013-6-30,86,75,70,74,70,68,97,87,67,30.32,30.11,12,2,12,0.11
2013-7-1,81,74,70,76,72,69,99,94,81,30.47,30.32,11,2,11,0.02
2013-7-2,83,75,72,75,72,71,99,92,77,30.54,29.29,9,2,9,0.13
2013-7-3,88,77,69,76,72,69,99,86,63,29.98,29.92,13,3,13,0.02
2013-7-4,91,80,73,78,74,71,98,82,60,29.98,29.88,10,2,10,0.00
2013-7-5,94,81,70,77,74,70,98,80,50,29.94,29.83,14,2,14,0.00
2013-7-6,93,80,70,78,73,69,98,83,54,29.86,29.75,7,1,7,0.00
2013-7-7,94,82,68,79,73,68,99,76,56,29.80,29.69,8,1,8,0.00
2013-7-8,93,86,71,74,73,69,98,67,47,30.10,29.69,6,2,6,0.08
2013-7-9,82,71,67,74,69,66,99,94,75,30.04,29.97,6,1,6,0.01
2013-7-10,87,77,69,76,73,69,99,88,67,30.01,29.78,10,2,10,0.00
2013-7-11,82,73,45,76,71,32,99,95,60,30.05,29.78,4,1,7,0.35
2013-7-12,80,70,66,69,64,55,99,82,64,30.30,30.04,10,2,10,0.00
2013-7-13,78,71,64,74,68,14,99,93,10,30.42,30.29,4,1,4,0.07
2013-7-14,90,79,72,77,74,13,99,85,58,30.43,30.33,98,1,98,0.00
2013-7-15,92,79,-13,79,73,-17,98,85,54,30.34,30.23,6,1,6,0.00
2013-7-16,94,79,66,74,70,-15,99,78,10,30.29,30.23,12,1,12,0.00
2013-7-17,96,80,67,77,71,66,99,77,43,30.31,30.16,26,1,26,0.00
2013-7-18,98,82,70,78,73,69,96,77,42,30.17,30.07,11,1,11,0.00
2013-7-19,97,84,74,80,75,30,97,78,13,30.09,29.88,10,2,10,0.00
2013-7-20,94,81,70,79,75,69,97,83,56,29.96,29.80,11,2,11,0.12
2013-7-21,88,76,64,71,64,25,99,74,10,30.11,29.96,4,1,4,0.01
2013-7-22,87,74,64,72,68,63,99,83,53,30.12,29.99,7,1,7,0.01
2013-7-23,87,74,70,79,72,69,99,93,69,29.99,29.67,8,1,8,1.71
2013-7-24,84,74,66,76,69,61,99,87,62,30.06,29.72,8,1,8,0.00
2013-7-25,68,59,57,61,56,51,99,90,74,30.20,30.05,9,2,9,1.89
2013-7-26,73,63,58,69,62,58,99,96,81,30.15,30.08,8,2,8,0.18
2013-7-27,85,70,59,69,64,59,99,83,49,30.18,30.12,8,2,8,0.00
2013-7-28,88,73,64,72,67,63,98,84,46,30.14,30.07,6,1,6,0.00
2013-7-29,86,74,64,74,69,62,97,85,61,30.17,30.09,8,1,8,0.00
2013-7-30,83,68,56,65,60,56,99,79,47,30.24,30.17,8,1,8,0.00
2013-7-31,83,68,54,67,61,53,99,81,48,30.26,30.16,4,1,4,0.00
2013-8-1,81,67,58,69,63,58,99,87,56,30.18,29.99,10,1,10,0.01
2013-8-2,84,71,64,69,64,60,99,82,48,30.01,29.91,10,1,10,0.21
2013-8-3,79,68,60,67,63,59,97,86,62,30.00,29.92,7,2,7,0.08
2013-8-4,80,64,52,65,58,52,99,82,49,30.03,29.91,8,1,8,0.01
2013-8-5,77,61,49,58,52,45,99,75,36,30.17,30.02,9,2,9,0.00
2013-8-6,81,62,46,62,53,45,99,76,38,30.26,30.16,7,1,7,0.00
2013-8-7,81,65,51,64,56,51,99,76,39,30.30,30.24,6,1,6,0.00
2013-8-8,79,71,64,72,68,61,98,90,78,30.24,30.14,13,2,13,0.09
2013-8-9,75,72,29,74,71,28,97,95,92,30.16,29.89,12,3,12,0.89
2013-8-10,84,70,57,72,64,52,99,82,47,30.15,29.93,8,1,8,0.01
2013-8-11,57,50,48,53,50,48,99,98,87,30.21,30.14,2,0,2,0.00
2013-8-12,50,50,50,50,50,50,99,99,99,30.21,30.21,0,0,0,0.00
2013-8-13,50,50,50,50,50,50,99,99,99,30.21,30.21,0,0,0,0.00
2013-8-14,50,50,50,50,50,50,99,99,99,30.21,30.21,0,0,0,0.00
2013-8-15,50,50,50,50,50,50,99,99,99,30.21,30.21,0,0,0,0.00